Time,TemperatureF,DewpointF,PressureIn,WindDirection,WindDirectionDegrees,WindSpeedMPH,WindSpeedGustMPH,Humidity,HourlyPrecipIn,Conditions,Clouds,dailyrainin,SoftwareType,DateUTC
2013-06-01 00:01:00,53.6,31.1,30.80,NW,315,3.6,3.6,42,0.00,,---,0.00,VWS V13.01,2013-06-01 07:01:00,
2013-06-01 00:06:00,53.6,31.1,30.80,NW,315,3.1,3.1,42,0.00,,---,0.00,VWS V13.01,2013-06-01 07:06:00,
2013-06-01 00:11:00,51.6,32.1,30.80,NW,315,0.0,0.0,47,0.00,,---,0.00,VWS V13.01,2013-06-01 07:11:00,
2013-06-01 00:16:00,51.6,32.1,30.77,NW,315,0.0,0.0,47,0.00,,---,0.00,VWS V13.01,2013-06-01 07:16:00,
2013-06-01 00:21:00,51.6,32.1,30.77,NW,315,0.0,0.0,47,0.00,,---,0.00,VWS V13.01,2013-06-01 07:21:00,
2013-06-01 00:26:00,51.6,32.1,30.77,NW,315,0.0,0.0,47,0.00,,---,0.00,VWS V13.01,2013-06-01 07:26:00,
2013-06-01 00:31:00,51.6,32.1,30.80,NW,315,0.0,0.0,47,0.00,,---,0.00,VWS V13.01,2013-06-01 07:31:00,
2013-06-01 00:36:00,51.6,32.1,30.80,NW,315,0.0,0.0,47,0.00,,---,0.00,VWS V13.01,2013-06-01 07:36:00,
2013-06-01 00:41:00,51.6,32.1,30.80,NW,315,0.0,0.0,47,0.00,,---,0.00,VWS V13.01,2013-06-01 07:41:00,
2013-06-01 00:46:00,51.6,32.1,30.80,NW,315,0.0,0.0,47,0.00,,---,0.00,VWS V13.01,2013-06-01 07:46:00,
2013-06-01 00:51:00,50.0,32.6,30.80,NW,315,0.0,0.0,51,0.00,,---,0.00,VWS V13.01,2013-06-01 07:51:00,
2013-06-01 00:56:00,50.0,32.6,30.80,NW,315,0.0,0.0,51,0.00,,---,0.00,VWS V13.01,2013-06-01 07:56:00,
2013-06-01 01:01:00,50.2,33.2,30.80,NW,315,0.0,0.0,52,0.00,,---,0.00,VWS V13.01,2013-06-01 08:01:00,
2013-06-01 01:05:00,50.2,33.2,30.80,NW,315,0.0,0.0,52,0.00,,---,0.00,VWS V13.01,2013-06-01 08:05:00,
2013-06-01 01:11:00,50.2,33.2,30.80,NW,315,0.0,0.0,52,0.00,,---,0.00,VWS V13.01,2013-06-01 08:11:00,
2013-06-01 01:15:00,50.2,33.2,30.77,NW,315,2.2,2.2,52,0.00,,---,0.00,VWS V13.01,2013-06-01 08:15:00,
2013-06-01 01:20:00,50.2,33.2,30.77,NW,315,0.0,0.0,52,0.00,,---,0.00,VWS V13.01,2013-06-01 08:20:00,
2013-06-01 01:25:00,50.2,33.2,30.77,NW,315,0.0,0.0,52,0.00,,---,0.00,VWS V13.01,2013-06-01 08:25:00,
2013-06-01 01:30:00,50.2,33.2,30.80,NW,315,0.0,0.0,52,0.00,,---,0.00,VWS V13.01,2013-06-01 08:30:00,
2013-06-01 01:35:00,50.2,33.2,30.80,NW,315,0.0,0.0,52,0.00,,---,0.00,VWS V13.01,2013-06-01 08:35:00,
2013-06-01 01:40:00,50.2,33.2,30.80,NW,315,0.0,0.0,52,0.00,,---,0.00,VWS V13.01,2013-06-01 08:40:00,
2013-06-01 01:45:00,50.2,33.2,30.80,NW,315,0.0,0.0,52,0.00,,---,0.00,VWS V13.01,2013-06-01 08:45:00,
2013-06-01 01:50:00,50.2,33.2,30.80,NW,315,0.0,0.0,52,0.00,,---,0.00,VWS V13.01,2013-06-01 08:50:00,
2013-06-01 01:55:00,50.2,33.2,30.80,NW,315,0.0,0.0,52,0.00,,---,0.00,VWS V13.01,2013-06-01 08:55:00,
2013-06-01 02:00:00,50.2,33.2,30.80,NW,315,0.0,0.0,52,0.00,,---,0.00,VWS V13.01,2013-06-01 09:00:00,
2013-06-01 02:05:00,50.2,33.2,30.80,NW,315,0.0,0.0,52,0.00,,---,0.00,VWS V13.01,2013-06-01 09:05:00,
2013-06-01 02:10:00,50.2,33.2,30.80,NW,315,0.0,0.0,52,0.00,,---,0.00,VWS V13.01,2013-06-01 09:10:00,
2013-06-01 02:15:00,50.2,33.2,30.80,NW,315,0.0,0.0,52,0.00,,---,0.00,VWS V13.01,2013-06-01 09:15:00,
2013-06-01 02:20:00,50.2,33.2,30.80,NW,315,0.0,0.0,52,0.00,,---,0.00,VWS V13.01,2013-06-01 09:20:00,
2013-06-01 02:25:00,47.1,33.5,30.80,NW,315,0.0,0.0,59,0.00,,---,0.00,VWS V13.01,2013-06-01 09:25:00,
2013-06-01 02:30:00,47.1,33.5,30.80,NW,315,0.0,0.0,59,0.00,,---,0.00,VWS V13.01,2013-06-01 09:30:00,
2013-06-01 02:35:00,46.4,33.3,30.80,NW,315,2.2,2.2,60,0.00,,---,0.00,VWS V13.01,2013-06-01 09:35:00,
2013-06-01 02:40:00,46.4,33.3,30.80,NW,315,0.0,0.0,60,0.00,,---,0.00,VWS V13.01,2013-06-01 09:40:00,
2013-06-01 02:45:00,46.4,33.3,30.77,NW,315,0.0,0.0,60,0.00,,---,0.00,VWS V13.01,2013-06-01 09:45:00,
2013-06-01 02:50:00,46.4,33.3,30.77,NW,315,0.0,0.0,60,0.00,,---,0.00,VWS V13.01,2013-06-01 09:50:00,
2013-06-01 02:55:00,44.4,32.6,30.77,NW,315,0.0,0.0,63,0.00,,---,0.00,VWS V13.01,2013-06-01 09:55:00,
2013-06-01 03:00:00,44.4,32.6,30.77,NW,315,0.0,0.0,63,0.00,,---,0.00,VWS V13.01,2013-06-01 10:00:00,
2013-06-01 03:05:00,43.2,32.2,30.77,NW,315,0.0,0.0,65,0.00,,---,0.00,VWS V13.01,2013-06-01 10:05:00,
2013-06-01 03:10:00,43.2,32.2,30.77,NW,315,0.0,0.0,65,0.00,,---,0.00,VWS V13.01,2013-06-01 10:10:00,
2013-06-01 03:15:00,43.2,32.2,30.77,NW,315,0.0,0.0,65,0.00,,---,0.00,VWS V13.01,2013-06-01 10:15:00,
2013-06-01 03:20:00,43.2,32.2,30.77,NW,315,0.0,0.0,65,0.00,,---,0.00,VWS V13.01,2013-06-01 10:20:00,
2013-06-01 03:25:00,43.2,32.2,30.77,NW,315,0.0,0.0,65,0.00,,---,0.00,VWS V13.01,2013-06-01 10:25:00,
2013-06-01 03:30:00,43.2,32.2,30.77,NW,315,0.0,0.0,65,0.00,,---,0.00,VWS V13.01,2013-06-01 10:30:00,
2013-06-01 03:35:00,43.2,32.2,30.77,NW,315,0.0,0.0,65,0.00,,---,0.00,VWS V13.01,2013-06-01 10:35:00,
2013-06-01 03:40:00,43.2,32.2,30.77,NW,315,0.0,0.0,65,0.00,,---,0.00,VWS V13.01,2013-06-01 10:40:00,
2013-06-01 03:45:00,43.2,32.2,30.77,NW,315,0.0,0.0,65,0.00,,---,0.00,VWS V13.01,2013-06-01 10:45:00,
2013-06-01 03:50:00,43.2,32.2,30.77,NW,315,0.0,0.0,65,0.00,,---,0.00,VWS V13.01,2013-06-01 10:50:00,
2013-06-01 03:55:00,43.2,32.2,30.77,NW,315,2.2,2.7,65,0.00,,---,0.00,VWS V13.01,2013-06-01 10:55:00,
2013-06-01 04:00:00,41.5,33.2,30.77,NW,315,2.7,2.7,72,0.00,,---,0.00,VWS V13.01,2013-06-01 11:00:00,
2013-06-01 04:05:00,41.5,33.2,30.77,NW,315,2.7,2.7,72,0.00,,---,0.00,VWS V13.01,2013-06-01 11:05:00,
2013-06-01 04:10:00,40.8,32.5,30.77,NW,315,2.7,2.7,72,0.00,,---,0.00,VWS V13.01,2013-06-01 11:10:00,
2013-06-01 04:15:00,40.6,32.3,30.77,NW,315,0.0,0.0,72,0.00,,---,0.00,VWS V13.01,2013-06-01 11:15:00,
2013-06-01 04:20:00,40.6,32.3,30.80,NW,315,0.0,0.0,72,0.00,,---,0.00,VWS V13.01,2013-06-01 11:20:00,
2013-06-01 04:25:00,40.6,32.3,30.80,NW,315,0.0,0.0,72,0.00,,---,0.00,VWS V13.01,2013-06-01 11:25:00,
2013-06-01 04:30:00,40.6,32.3,30.80,NW,315,0.0,0.0,72,0.00,,---,0.00,VWS V13.01,2013-06-01 11:30:00,
2013-06-01 04:35:00,40.6,32.3,30.77,NW,315,0.0,0.0,72,0.00,,---,0.00,VWS V13.01,2013-06-01 11:35:00,
2013-06-01 04:40:00,40.6,32.3,30.77,NW,315,0.0,0.0,72,0.00,,---,0.00,VWS V13.01,2013-06-01 11:40:00,
2013-06-01 04:45:00,40.6,32.3,30.77,NW,315,3.6,3.6,72,0.00,,---,0.00,VWS V13.01,2013-06-01 11:45:00,
2013-06-01 04:50:00,40.6,32.3,30.77,NW,315,0.0,0.0,72,0.00,,---,0.00,VWS V13.01,2013-06-01 11:50:00,
2013-06-01 04:55:00,40.8,33.5,30.77,NW,315,3.6,3.6,75,0.00,,---,0.00,VWS V13.01,2013-06-01 11:55:00,
2013-06-01 05:00:00,41.0,33.7,30.77,NW,315,0.0,2.7,75,0.00,,---,0.00,VWS V13.01,2013-06-01 12:00:00,
2013-06-01 05:05:00,41.0,33.7,30.77,NW,315,0.0,2.2,75,0.00,,---,0.00,VWS V13.01,2013-06-01 12:05:00,
2013-06-01 05:10:00,41.0,33.4,30.77,NW,315,3.1,3.1,74,0.00,,---,0.00,VWS V13.01,2013-06-01 12:10:00,
2013-06-01 05:15:00,41.0,33.4,30.77,NW,315,3.6,3.6,74,0.00,,---,0.00,VWS V13.01,2013-06-01 12:15:00,
2013-06-01 05:20:00,41.4,33.7,30.77,NW,315,3.1,3.1,74,0.00,,---,0.00,VWS V13.01,2013-06-01 12:20:00,
2013-06-01 05:25:00,41.2,33.5,30.77,NW,315,2.2,2.7,74,0.00,,---,0.00,VWS V13.01,2013-06-01 12:25:00,
2013-06-01 05:30:00,41.0,33.4,30.77,NW,315,0.0,0.0,74,0.00,,---,0.00,VWS V13.01,2013-06-01 12:30:00,
2013-06-01 05:35:00,40.6,33.0,30.77,NW,315,0.0,0.0,74,0.00,,---,0.00,VWS V13.01,2013-06-01 12:35:00,
2013-06-01 05:40:00,40.6,33.0,30.77,NW,315,0.0,0.0,74,0.00,,---,0.00,VWS V13.01,2013-06-01 12:40:00,
2013-06-01 05:45:00,40.5,33.2,30.77,NW,315,0.0,0.0,75,0.00,,---,0.00,VWS V13.01,2013-06-01 12:45:00,
2013-06-01 05:50:00,40.5,33.2,30.77,NW,315,0.0,0.0,75,0.00,,---,0.00,VWS V13.01,2013-06-01 12:50:00,
2013-06-01 05:55:00,40.5,33.2,30.77,NW,315,0.0,0.0,75,0.00,,---,0.00,VWS V13.01,2013-06-01 12:55:00,
2013-06-01 06:00:00,40.5,33.2,30.77,NW,315,0.0,0.0,75,0.00,,---,0.00,VWS V13.01,2013-06-01 13:00:00,
2013-06-01 06:05:00,40.5,33.2,30.77,NW,315,0.0,0.0,75,0.00,,---,0.00,VWS V13.01,2013-06-01 13:05:00,
2013-06-01 06:10:00,40.5,33.2,30.77,NW,315,0.0,0.0,75,0.00,,---,0.00,VWS V13.01,2013-06-01 13:10:00,
2013-06-01 06:15:00,40.5,33.2,30.77,NW,315,0.0,0.0,75,0.00,,---,0.00,VWS V13.01,2013-06-01 13:15:00,
2013-06-01 06:20:00,40.5,33.2,30.77,NW,315,2.2,2.2,75,0.00,,---,0.00,VWS V13.01,2013-06-01 13:20:00,
2013-06-01 06:25:00,40.5,33.2,30.77,NW,315,2.7,2.7,75,0.00,,---,0.00,VWS V13.01,2013-06-01 13:25:00,
2013-06-01 06:30:00,40.5,33.2,30.77,NW,315,2.7,2.7,75,0.00,,---,0.00,VWS V13.01,2013-06-01 13:30:00,
2013-06-01 06:35:00,40.5,33.2,30.77,NW,315,2.7,2.7,75,0.00,,---,0.00,VWS V13.01,2013-06-01 13:35:00,
2013-06-01 06:40:00,40.5,33.2,30.77,NW,315,2.7,2.7,75,0.00,,---,0.00,VWS V13.01,2013-06-01 13:40:00,
2013-06-01 06:45:00,40.5,33.2,30.77,NW,315,0.0,0.0,75,0.00,,---,0.00,VWS V13.01,2013-06-01 13:45:00,
2013-06-01 06:50:00,40.5,33.2,30.77,NW,315,4.0,4.0,75,0.00,,---,0.00,VWS V13.01,2013-06-01 13:50:00,
2013-06-01 06:55:00,40.5,33.2,30.77,NW,315,4.0,4.0,75,0.00,,---,0.00,VWS V13.01,2013-06-01 13:55:00,
2013-06-01 07:00:00,40.5,33.2,30.77,NW,315,4.0,4.0,75,0.00,,---,0.00,VWS V13.01,2013-06-01 14:00:00,
2013-06-01 07:05:00,40.5,33.2,30.77,NW,315,2.2,2.2,75,0.00,,---,0.00,VWS V13.01,2013-06-01 14:05:00,
2013-06-01 07:10:00,40.5,33.2,30.77,NW,315,2.2,2.2,75,0.00,,---,0.00,VWS V13.01,2013-06-01 14:10:00,
2013-06-01 07:15:00,40.5,33.2,30.77,NW,315,2.2,2.2,75,0.00,,---,0.00,VWS V13.01,2013-06-01 14:15:00,
2013-06-01 07:20:00,40.5,33.2,30.77,NW,315,2.2,2.2,75,0.00,,---,0.00,VWS V13.01,2013-06-01 14:20:00,
2013-06-01 07:25:00,51.1,34.6,30.77,NW,315,2.2,2.2,53,0.00,,---,0.00,VWS V13.01,2013-06-01 14:25:00,
2013-06-01 07:30:00,51.6,35.1,30.77,NW,315,2.7,2.7,53,0.00,,---,0.00,VWS V13.01,2013-06-01 14:30:00,
2013-06-01 07:35:00,51.6,35.1,30.77,NW,315,2.7,2.7,53,0.00,,---,0.00,VWS V13.01,2013-06-01 14:35:00,
2013-06-01 07:40:00,51.6,35.1,30.77,NW,315,2.7,2.7,53,0.00,,---,0.00,VWS V13.01,2013-06-01 14:40:00,
2013-06-01 07:45:00,51.6,35.1,30.77,NW,315,2.7,2.7,53,0.00,,---,0.00,VWS V13.01,2013-06-01 14:45:00,
2013-06-01 07:50:00,51.6,35.1,30.77,NW,315,2.7,2.7,53,0.00,,---,0.00,VWS V13.01,2013-06-01 14:50:00,
2013-06-01 07:55:00,55.2,35.9,30.77,NW,315,0.0,2.7,48,0.00,,---,0.00,VWS V13.01,2013-06-01 14:55:00,
2013-06-01 08:00:00,56.5,36.0,30.77,NW,315,4.0,4.0,46,0.00,,---,0.00,VWS V13.01,2013-06-01 15:00:00,
2013-06-01 08:05:00,57.2,36.1,30.77,NE,45,3.6,4.9,45,0.00,,---,0.00,VWS V13.01,2013-06-01 15:05:00,
2013-06-01 08:10:00,57.2,35.5,30.77,North,0,2.7,2.7,44,0.00,,---,0.00,VWS V13.01,2013-06-01 15:10:00,
2013-06-01 08:15:00,58.3,35.9,30.77,West,270,0.0,0.0,43,0.00,,---,0.00,VWS V13.01,2013-06-01 15:15:00,
2013-06-01 08:20:00,58.6,35.6,30.77,West,270,3.1,3.1,42,0.00,,---,0.00,VWS V13.01,2013-06-01 15:20:00,
2013-06-01 08:25:00,59.5,35.2,30.77,West,270,2.2,2.2,40,0.00,,---,0.00,VWS V13.01,2013-06-01 15:25:00,
2013-06-01 08:30:00,60.3,35.9,30.77,West,270,0.0,2.2,40,0.00,,---,0.00,VWS V13.01,2013-06-01 15:30:00,
2013-06-01 08:35:00,60.8,35.7,30.77,West,270,4.9,4.9,39,0.00,,---,0.00,VWS V13.01,2013-06-01 15:35:00,
2013-06-01 08:40:00,61.2,35.4,30.77,SW,225,0.0,0.0,38,0.00,,---,0.00,VWS V13.01,2013-06-01 15:40:00,
2013-06-01 08:45:00,61.7,35.9,30.77,NE,45,3.6,4.0,38,0.00,,---,0.00,VWS V13.01,2013-06-01 15:45:00,
2013-06-01 08:50:00,62.2,35.7,30.77,NW,315,0.0,0.0,37,0.00,,---,0.00,VWS V13.01,2013-06-01 15:50:00,
2013-06-01 08:55:00,62.4,35.8,30.77,NE,45,3.1,3.1,37,0.00,,---,0.00,VWS V13.01,2013-06-01 15:55:00,
2013-06-01 09:00:00,61.9,35.3,30.77,NNW,338,0.0,0.0,37,0.00,,---,0.00,VWS V13.01,2013-06-01 16:00:00,
2013-06-01 09:05:00,62.6,35.3,30.77,NW,315,2.2,2.2,36,0.00,,---,0.00,VWS V13.01,2013-06-01 16:05:00,
2013-06-01 09:10:00,62.6,35.3,30.77,NNW,338,3.1,3.1,36,0.00,,---,0.00,VWS V13.01,2013-06-01 16:10:00,
2013-06-01 09:15:00,64.4,36.9,30.77,West,270,4.0,4.0,36,0.00,,---,0.00,VWS V13.01,2013-06-01 16:15:00,
2013-06-01 09:20:00,65.1,36.8,30.77,NE,45,2.7,2.7,35,0.00,,---,0.00,VWS V13.01,2013-06-01 16:20:00,
2013-06-01 09:25:00,65.5,37.1,30.74,East,90,0.0,0.0,35,0.00,,---,0.00,VWS V13.01,2013-06-01 16:25:00,
2013-06-01 09:30:00,65.5,37.1,30.74,East,90,2.2,2.2,35,0.00,,---,0.00,VWS V13.01,2013-06-01 16:30:00,
2013-06-01 09:35:00,65.8,37.5,30.74,SE,135,3.6,3.6,35,0.00,,---,0.00,VWS V13.01,2013-06-01 16:35:00,
2013-06-01 09:40:00,65.7,36.6,30.74,NE,45,5.4,5.4,34,0.00,,---,0.00,VWS V13.01,2013-06-01 16:40:00,
2013-06-01 09:45:00,65.5,36.4,30.74,NNE,22,3.1,3.1,34,0.00,,---,0.00,VWS V13.01,2013-06-01 16:45:00,
2013-06-01 09:50:00,65.7,36.6,30.74,NE,45,4.5,4.5,34,0.00,,---,0.00,VWS V13.01,2013-06-01 16:50:00,
2013-06-01 09:55:00,66.4,37.2,30.74,NE,45,0.0,0.0,34,0.00,,---,0.00,VWS V13.01,2013-06-01 16:55:00,
2013-06-01 10:00:00,66.6,37.3,30.74,ENE,68,0.0,0.0,34,0.00,,---,0.00,VWS V13.01,2013-06-01 17:00:00,
2013-06-01 10:05:00,67.3,37.2,30.74,SE,135,3.6,3.6,33,0.00,,---,0.00,VWS V13.01,2013-06-01 17:05:00,
2013-06-01 10:10:00,68.2,38.0,30.74,NE,45,5.4,5.4,33,0.00,,---,0.00,VWS V13.01,2013-06-01 17:10:00,
2013-06-01 10:15:00,68.5,38.3,30.74,SE,135,4.0,4.0,33,0.00,,---,0.00,VWS V13.01,2013-06-01 17:15:00,
2013-06-01 10:20:00,68.2,37.2,30.74,ENE,68,4.0,4.0,32,0.00,,---,0.00,VWS V13.01,2013-06-01 17:20:00,
2013-06-01 10:25:00,68.0,37.1,30.74,SE,135,3.1,3.1,32,0.00,,---,0.00,VWS V13.01,2013-06-01 17:25:00,
2013-06-01 10:30:00,68.5,37.5,30.74,SE,135,2.2,2.2,32,0.00,,---,0.00,VWS V13.01,2013-06-01 17:30:00,
2013-06-01 10:35:00,69.8,38.6,30.74,SE,135,0.0,0.0,32,0.00,,---,0.00,VWS V13.01,2013-06-01 17:35:00,
2013-06-01 10:40:00,68.7,36.1,30.74,West,270,2.2,2.2,30,0.00,,---,0.00,VWS V13.01,2013-06-01 17:40:00,
2013-06-01 10:45:00,69.4,36.7,30.74,SE,135,0.0,0.0,30,0.00,,---,0.00,VWS V13.01,2013-06-01 17:45:00,
2013-06-01 10:50:00,69.1,35.5,30.74,South,180,2.7,2.7,29,0.00,,---,0.00,VWS V13.01,2013-06-01 17:50:00,
2013-06-01 10:55:00,69.8,36.1,30.74,SE,135,2.7,3.6,29,0.00,,---,0.00,VWS V13.01,2013-06-01 17:55:00,
2013-06-01 11:00:00,70.2,36.5,30.71,ENE,68,4.9,4.9,29,0.00,,---,0.00,VWS V13.01,2013-06-01 18:00:00,
2013-06-01 11:05:00,70.0,35.4,30.71,NE,45,7.2,7.2,28,0.00,,---,0.00,VWS V13.01,2013-06-01 18:05:00,
2013-06-01 11:10:00,70.0,34.5,30.71,South,180,2.7,2.7,27,0.00,,---,0.00,VWS V13.01,2013-06-01 18:10:00,
2013-06-01 11:15:00,69.8,34.3,30.71,ENE,68,3.6,3.6,27,0.00,,---,0.00,VWS V13.01,2013-06-01 18:15:00,
2013-06-01 11:20:00,71.2,35.6,30.71,ENE,68,3.6,3.6,27,0.00,,---,0.00,VWS V13.01,2013-06-01 18:20:00,
2013-06-01 11:25:00,70.5,35.0,30.71,ESE,112,3.1,3.1,27,0.00,,---,0.00,VWS V13.01,2013-06-01 18:25:00,
2013-06-01 11:30:00,70.3,33.9,30.71,North,0,3.1,4.0,26,0.00,,---,0.00,VWS V13.01,2013-06-01 18:30:00,
2013-06-01 11:35:00,70.0,33.5,30.71,NE,45,6.3,6.3,26,0.00,,---,0.00,VWS V13.01,2013-06-01 18:35:00,
2013-06-01 11:40:00,70.0,33.5,30.71,North,0,5.4,5.4,26,0.00,,---,0.00,VWS V13.01,2013-06-01 18:40:00,
2013-06-01 11:45:00,70.0,33.5,30.71,North,0,5.4,5.4,26,0.00,,---,0.00,VWS V13.01,2013-06-01 18:45:00,
2013-06-01 11:50:00,71.8,34.1,30.71,ENE,68,2.2,2.2,25,0.00,,---,0.00,VWS V13.01,2013-06-01 18:50:00,
2013-06-01 11:55:00,71.2,34.6,30.71,NE,45,3.6,3.6,26,0.00,,---,0.00,VWS V13.01,2013-06-01 18:55:00,
2013-06-01 12:00:00,71.4,34.8,30.71,NE,45,3.1,3.1,26,0.00,,---,0.00,VWS V13.01,2013-06-01 19:00:00,
2013-06-01 12:05:00,71.4,35.7,30.71,NE,45,5.4,5.4,27,0.00,,---,0.00,VWS V13.01,2013-06-01 19:05:00,
2013-06-01 12:10:00,72.0,35.2,30.71,NE,45,0.0,0.0,26,0.00,,---,0.00,VWS V13.01,2013-06-01 19:10:00,
2013-06-01 12:15:00,72.0,35.2,30.71,NE,45,0.0,0.0,26,0.00,,---,0.00,VWS V13.01,2013-06-01 19:15:00,
2013-06-01 12:20:00,72.0,35.2,30.71,NE,45,0.0,0.0,26,0.00,,---,0.00,VWS V13.01,2013-06-01 19:20:00,
2013-06-01 12:25:00,72.0,35.2,30.71,NE,45,0.0,0.0,26,0.00,,---,0.00,VWS V13.01,2013-06-01 19:25:00,
2013-06-01 12:30:00,74.7,36.5,30.71,ENE,68,3.1,3.1,25,0.00,,---,0.00,VWS V13.01,2013-06-01 19:30:00,
2013-06-01 12:35:00,75.0,36.8,30.68,NE,45,3.6,3.6,25,0.00,,---,0.00,VWS V13.01,2013-06-01 19:35:00,
2013-06-01 12:40:00,73.6,35.6,30.68,NE,45,7.6,7.6,25,0.00,,---,0.00,VWS V13.01,2013-06-01 19:40:00,
2013-06-01 12:45:00,72.9,34.0,30.68,NE,45,3.6,3.6,24,0.00,,---,0.00,VWS V13.01,2013-06-01 19:45:00,
2013-06-01 12:50:00,74.3,36.2,30.68,NE,45,6.3,7.6,25,0.00,,---,0.00,VWS V13.01,2013-06-01 19:50:00,
2013-06-01 12:55:00,73.6,35.6,30.68,North,0,5.4,5.4,25,0.00,,---,0.00,VWS V13.01,2013-06-01 19:55:00,
2013-06-01 13:00:00,73.9,35.9,30.68,North,0,7.2,7.2,25,0.00,,---,0.00,VWS V13.01,2013-06-01 20:00:00,
2013-06-01 13:05:00,74.1,35.1,30.68,North,0,6.7,6.7,24,0.00,,---,0.00,VWS V13.01,2013-06-01 20:05:00,
2013-06-01 13:10:00,74.1,35.1,30.68,NE,45,5.4,5.4,24,0.00,,---,0.00,VWS V13.01,2013-06-01 20:10:00,
2013-06-01 13:15:00,73.2,35.3,30.68,NE,45,7.6,7.6,25,0.00,,---,0.00,VWS V13.01,2013-06-01 20:15:00,
2013-06-01 13:20:00,73.6,35.6,30.68,NE,45,0.0,0.0,25,0.00,,---,0.00,VWS V13.01,2013-06-01 20:20:00,
2013-06-01 13:25:00,73.6,35.6,30.65,NE,45,0.0,0.0,25,0.00,,---,0.00,VWS V13.01,2013-06-01 20:25:00,
2013-06-01 13:30:00,73.6,35.6,30.65,NE,45,7.2,7.2,25,0.00,,---,0.00,VWS V13.01,2013-06-01 20:30:00,
2013-06-01 13:35:00,72.7,33.8,30.65,NE,45,6.3,6.3,24,0.00,,---,0.00,VWS V13.01,2013-06-01 20:35:00,
2013-06-01 13:40:00,73.6,35.6,30.65,ESE,112,3.6,5.8,25,0.00,,---,0.00,VWS V13.01,2013-06-01 20:40:00,
2013-06-01 13:45:00,73.9,35.9,30.65,NE,45,2.7,3.1,25,0.00,,---,0.00,VWS V13.01,2013-06-01 20:45:00,
2013-06-01 13:50:00,74.3,35.2,30.65,North,0,0.0,0.0,24,0.00,,---,0.00,VWS V13.01,2013-06-01 20:50:00,
2013-06-01 13:55:00,74.8,35.7,30.65,SE,135,2.7,2.7,24,0.00,,---,0.00,VWS V13.01,2013-06-01 20:55:00,
2013-06-01 14:00:00,76.3,36.9,30.65,SE,135,2.2,2.2,24,0.00,,---,0.00,VWS V13.01,2013-06-01 21:00:00,
2013-06-01 14:05:00,76.8,36.2,30.65,NE,45,3.6,4.0,23,0.00,,---,0.00,VWS V13.01,2013-06-01 21:05:00,
2013-06-01 14:10:00,75.7,35.3,30.65,North,0,6.3,6.3,23,0.00,,---,0.00,VWS V13.01,2013-06-01 21:10:00,
2013-06-01 14:15:00,75.6,35.2,30.65,NE,45,8.7,8.7,23,0.00,,---,0.00,VWS V13.01,2013-06-01 21:15:00,
2013-06-01 14:20:00,74.8,35.7,30.65,NE,45,8.3,8.7,24,0.00,,---,0.00,VWS V13.01,2013-06-01 21:20:00,
2013-06-01 14:25:00,74.5,35.4,30.65,NE,45,5.8,15.0,24,0.00,,---,0.00,VWS V13.01,2013-06-01 21:25:00,
2013-06-01 14:30:00,74.8,34.6,30.65,NE,45,7.6,8.3,23,0.00,,---,0.00,VWS V13.01,2013-06-01 21:30:00,
2013-06-01 14:35:00,74.5,35.4,30.65,NE,45,5.4,9.6,24,0.00,,---,0.00,VWS V13.01,2013-06-01 21:35:00,
2013-06-01 14:40:00,74.7,34.4,30.62,NE,45,2.2,4.9,23,0.00,,---,0.00,VWS V13.01,2013-06-01 21:40:00,
2013-06-01 14:45:00,74.7,34.4,30.62,North,0,4.9,4.9,23,0.00,,---,0.00,VWS V13.01,2013-06-01 21:45:00,
2013-06-01 14:50:00,76.3,35.8,30.62,SW,225,8.3,8.3,23,0.00,,---,0.00,VWS V13.01,2013-06-01 21:50:00,
2013-06-01 14:55:00,76.3,35.8,30.65,NNW,338,4.0,4.0,23,0.00,,---,0.00,VWS V13.01,2013-06-01 21:55:00,
2013-06-01 15:00:00,76.6,36.1,30.65,North,0,10.1,10.1,23,0.00,,---,0.00,VWS V13.01,2013-06-01 22:00:00,
2013-06-01 15:05:00,75.7,35.3,30.65,North,0,7.6,7.6,23,0.00,,---,0.00,VWS V13.01,2013-06-01 22:05:00,
2013-06-01 15:10:00,75.7,35.3,30.65,NNW,338,4.0,4.9,23,0.00,,---,0.00,VWS V13.01,2013-06-01 22:10:00,
2013-06-01 15:15:00,75.7,35.3,30.65,NNE,22,6.3,6.3,23,0.00,,---,0.00,VWS V13.01,2013-06-01 22:15:00,
2013-06-01 15:20:00,77.4,36.7,30.65,North,0,5.8,5.8,23,0.00,,---,0.00,VWS V13.01,2013-06-01 22:20:00,
2013-06-01 15:25:00,76.3,35.8,30.62,North,0,5.8,6.3,23,0.00,,---,0.00,VWS V13.01,2013-06-01 22:25:00,
2013-06-01 15:30:00,76.3,35.8,30.62,North,0,6.7,6.7,23,0.00,,---,0.00,VWS V13.01,2013-06-01 22:30:00,
2013-06-01 15:35:00,76.3,35.8,30.62,NNW,338,7.6,7.6,23,0.00,,---,0.00,VWS V13.01,2013-06-01 22:35:00,
2013-06-01 15:40:00,76.3,35.8,30.62,North,0,11.0,11.0,23,0.00,,---,0.00,VWS V13.01,2013-06-01 22:40:00,
2013-06-01 15:45:00,75.9,35.5,30.62,North,0,7.6,8.7,23,0.00,,---,0.00,VWS V13.01,2013-06-01 22:45:00,
2013-06-01 15:50:00,75.6,36.3,30.62,North,0,0.0,7.6,24,0.00,,---,0.00,VWS V13.01,2013-06-01 22:50:00,
2013-06-01 15:55:00,76.1,35.7,30.62,North,0,12.8,12.8,23,0.00,,---,0.00,VWS V13.01,2013-06-01 22:55:00,
2013-06-01 16:00:00,76.3,35.8,30.62,North,0,6.3,6.3,23,0.00,,---,0.00,VWS V13.01,2013-06-01 23:00:00,
2013-06-01 16:05:00,76.3,35.8,30.62,NW,315,5.4,5.4,23,0.00,,---,0.00,VWS V13.01,2013-06-01 23:05:00,
2013-06-01 16:10:00,76.3,35.8,30.62,NW,315,5.4,5.4,23,0.00,,---,0.00,VWS V13.01,2013-06-01 23:10:00,
2013-06-01 16:15:00,75.4,35.0,30.62,NE,45,13.2,16.3,23,0.00,,---,0.00,VWS V13.01,2013-06-01 23:15:00,
2013-06-01 16:20:00,75.2,34.9,30.62,North,0,8.3,8.3,23,0.00,,---,0.00,VWS V13.01,2013-06-01 23:20:00,
2013-06-01 16:25:00,75.6,35.2,30.62,NE,45,6.3,6.3,23,0.00,,---,0.00,VWS V13.01,2013-06-01 23:25:00,
2013-06-01 16:30:00,75.4,35.0,30.62,NE,45,13.2,13.2,23,0.00,,---,0.00,VWS V13.01,2013-06-01 23:30:00,
2013-06-01 16:35:00,75.4,35.0,30.62,NE,45,13.2,13.2,23,0.00,,---,0.00,VWS V13.01,2013-06-01 23:35:00,
2013-06-01 16:40:00,75.6,35.2,30.62,North,0,10.1,10.1,23,0.00,,---,0.00,VWS V13.01,2013-06-01 23:40:00,
2013-06-01 16:45:00,75.6,35.2,30.62,North,0,5.8,10.1,23,0.00,,---,0.00,VWS V13.01,2013-06-01 23:45:00,
2013-06-01 16:50:00,75.7,36.4,30.62,North,0,8.3,8.3,24,0.00,,---,0.00,VWS V13.01,2013-06-01 23:50:00,
2013-06-01 16:55:00,75.7,36.4,30.62,North,0,8.3,8.3,24,0.00,,---,0.00,VWS V13.01,2013-06-01 23:55:00,
2013-06-01 17:00:00,75.7,36.4,30.62,North,0,10.1,14.5,24,0.00,,---,0.00,VWS V13.01,2013-06-02 00:00:00,
2013-06-01 17:04:00,75.0,35.8,30.62,NNE,22,6.3,10.5,24,0.00,,---,0.00,VWS V13.01,2013-06-02 00:04:00,
2013-06-01 17:09:00,75.0,35.8,30.62,NE,45,6.3,7.6,24,0.00,,---,0.00,VWS V13.01,2013-06-02 00:09:00,
2013-06-01 17:14:00,75.0,35.8,30.62,NNE,22,11.4,11.4,24,0.00,,---,0.00,VWS V13.01,2013-06-02 00:14:00,
2013-06-01 17:19:00,75.0,35.8,30.62,NNW,338,13.6,13.6,24,0.00,,---,0.00,VWS V13.01,2013-06-02 00:19:00,
2013-06-01 17:24:00,74.5,35.4,30.62,NE,45,13.2,13.2,24,0.00,,---,0.00,VWS V13.01,2013-06-02 00:24:00,
2013-06-01 17:29:00,74.3,35.2,30.62,NE,45,11.0,11.0,24,0.00,,---,0.00,VWS V13.01,2013-06-02 00:29:00,
2013-06-01 17:34:00,73.8,35.8,30.62,NE,45,11.0,11.0,25,0.00,,---,0.00,VWS V13.01,2013-06-02 00:34:00,
2013-06-01 17:39:00,73.8,35.8,30.62,NE,45,10.5,10.5,25,0.00,,---,0.00,VWS V13.01,2013-06-02 00:39:00,
2013-06-01 17:44:00,73.8,35.8,30.59,NE,45,8.7,8.7,25,0.00,,---,0.00,VWS V13.01,2013-06-02 00:44:00,
2013-06-01 17:49:00,74.5,36.4,30.59,NE,45,10.1,12.8,25,0.00,,---,0.00,VWS V13.01,2013-06-02 00:49:00,
2013-06-01 17:54:00,73.9,35.9,30.59,NNE,22,8.1,16.8,25,0.00,,---,0.00,VWS V13.01,2013-06-02 00:54:00,
2013-06-01 17:59:00,73.8,36.8,30.59,NE,45,10.5,10.5,26,0.00,,---,0.00,VWS V13.01,2013-06-02 00:59:00,
2013-06-01 18:04:00,73.2,35.3,30.59,North,0,10.5,10.5,25,0.00,,---,0.00,VWS V13.01,2013-06-02 01:04:00,
2013-06-01 18:09:00,73.0,36.2,30.59,North,0,6.3,12.8,26,0.00,,---,0.00,VWS V13.01,2013-06-02 01:09:00,
2013-06-01 18:14:00,72.5,35.7,30.59,North,0,15.4,15.4,26,0.00,,---,0.00,VWS V13.01,2013-06-02 01:14:00,
2013-06-01 18:19:00,72.5,35.7,30.59,NE,45,8.7,11.4,26,0.00,,---,0.00,VWS V13.01,2013-06-02 01:19:00,
2013-06-01 18:24:00,72.5,35.7,30.59,NNE,22,11.0,11.0,26,0.00,,---,0.00,VWS V13.01,2013-06-02 01:24:00,
2013-06-01 18:29:00,72.3,35.5,30.59,NE,45,8.7,15.0,26,0.00,,---,0.00,VWS V13.01,2013-06-02 01:29:00,
2013-06-01 18:34:00,72.1,35.4,30.59,NE,45,13.2,13.2,26,0.00,,---,0.00,VWS V13.01,2013-06-02 01:34:00,
2013-06-01 18:39:00,72.1,36.3,30.59,NE,45,11.4,11.4,27,0.00,,---,0.00,VWS V13.01,2013-06-02 01:39:00,
2013-06-01 18:44:00,72.5,36.7,30.59,North,0,7.2,15.0,27,0.00,,---,0.00,VWS V13.01,2013-06-02 01:44:00,
2013-06-01 18:49:00,72.9,37.0,30.59,WNW,292,7.2,7.2,27,0.00,,---,0.00,VWS V13.01,2013-06-02 01:49:00,
2013-06-01 18:54:00,72.9,37.0,30.59,North,0,10.1,10.1,27,0.00,,---,0.00,VWS V13.01,2013-06-02 01:54:00,
2013-06-01 18:59:00,72.9,37.0,30.59,NNW,338,4.9,4.9,27,0.00,,---,0.00,VWS V13.01,2013-06-02 01:59:00,
2013-06-01 19:04:00,72.9,37.0,30.59,North,0,7.6,7.6,27,0.00,,---,0.00,VWS V13.01,2013-06-02 02:04:00,
2013-06-01 19:09:00,72.9,37.0,30.59,North,0,8.3,8.3,27,0.00,,---,0.00,VWS V13.01,2013-06-02 02:09:00,
2013-06-01 19:14:00,71.2,37.4,30.59,NE,45,13.2,13.2,29,0.00,,---,0.00,VWS V13.01,2013-06-02 02:14:00,
2013-06-01 19:19:00,70.2,36.5,30.59,NE,45,8.3,8.3,29,0.00,,---,0.00,VWS V13.01,2013-06-02 02:19:00,
2013-06-01 19:24:00,69.6,37.7,30.59,North,0,6.3,6.3,31,0.00,,---,0.00,VWS V13.01,2013-06-02 02:24:00,
2013-06-01 19:29:00,69.1,38.0,30.59,North,0,10.1,12.8,32,0.00,,---,0.00,VWS V13.01,2013-06-02 02:29:00,
2013-06-01 19:34:00,69.1,38.0,30.59,North,0,13.2,13.2,32,0.00,,---,0.00,VWS V13.01,2013-06-02 02:34:00,
2013-06-01 19:39:00,68.5,37.5,30.59,North,0,10.5,10.5,32,0.00,,---,0.00,VWS V13.01,2013-06-02 02:39:00,
2013-06-01 19:44:00,68.4,38.2,30.59,NE,45,11.0,11.0,33,0.00,,---,0.00,VWS V13.01,2013-06-02 02:44:00,
2013-06-01 19:49:00,68.0,37.8,30.59,NE,45,8.3,8.3,33,0.00,,---,0.00,VWS V13.01,2013-06-02 02:49:00,
2013-06-01 19:54:00,67.6,38.3,30.59,NE,45,9.2,14.5,34,0.00,,---,0.00,VWS V13.01,2013-06-02 02:54:00,
2013-06-01 19:59:00,67.3,38.7,30.59,North,0,8.7,8.7,35,0.00,,---,0.00,VWS V13.01,2013-06-02 02:59:00,
2013-06-01 20:04:00,66.7,39.0,30.59,NE,45,13.2,13.2,36,0.00,,---,0.00,VWS V13.01,2013-06-02 03:04:00,
2013-06-01 20:09:00,66.6,38.8,30.59,NE,45,8.7,8.7,36,0.00,,---,0.00,VWS V13.01,2013-06-02 03:09:00,
2013-06-01 20:14:00,66.0,39.7,30.59,NE,45,8.7,8.7,38,0.00,,---,0.00,VWS V13.01,2013-06-02 03:14:00,
2013-06-01 20:19:00,65.8,39.5,30.59,North,0,6.3,6.3,38,0.00,,---,0.00,VWS V13.01,2013-06-02 03:19:00,
2013-06-01 20:24:00,65.5,39.9,30.59,NE,45,7.6,8.1,39,0.00,,---,0.00,VWS V13.01,2013-06-02 03:24:00,
2013-06-01 20:29:00,65.1,39.6,30.59,NE,45,10.1,10.1,39,0.00,,---,0.00,VWS V13.01,2013-06-02 03:29:00,
2013-06-01 20:34:00,64.8,39.2,30.59,NE,45,8.1,8.1,39,0.00,,---,0.00,VWS V13.01,2013-06-02 03:34:00,
2013-06-01 20:39:00,64.4,39.6,30.59,NE,45,9.6,9.6,40,0.00,,---,0.00,VWS V13.01,2013-06-02 03:39:00,
2013-06-01 20:44:00,64.2,39.4,30.59,NE,45,8.1,8.1,40,0.00,,---,0.00,VWS V13.01,2013-06-02 03:44:00,
2013-06-01 20:49:00,63.9,39.7,30.59,NE,45,8.1,8.1,41,0.00,,---,0.00,VWS V13.01,2013-06-02 03:49:00,
2013-06-01 20:54:00,63.7,39.6,30.59,NE,45,6.3,6.3,41,0.00,,---,0.00,VWS V13.01,2013-06-02 03:54:00,
2013-06-01 20:59:00,63.7,40.2,30.59,NE,45,6.3,6.3,42,0.00,,---,0.00,VWS V13.01,2013-06-02 03:59:00,
2013-06-01 21:01:00,63.7,40.2,30.59,NE,45,6.3,6.3,42,0.00,,---,0.00,VWS V13.01,2013-06-02 04:01:00,
2013-06-01 21:06:00,63.7,40.2,30.59,NE,45,6.3,6.3,42,0.00,,---,0.00,VWS V13.01,2013-06-02 04:06:00,
2013-06-01 21:11:00,63.0,40.1,30.59,NE,45,6.3,6.3,43,0.00,,---,0.00,VWS V13.01,2013-06-02 04:11:00,
2013-06-01 21:16:00,62.6,40.4,30.59,NE,45,6.3,6.3,44,0.00,,---,0.00,VWS V13.01,2013-06-02 04:16:00,
2013-06-01 21:21:00,62.6,40.4,30.59,NE,45,5.4,5.4,44,0.00,,---,0.00,VWS V13.01,2013-06-02 04:21:00,
2013-06-01 21:26:00,61.9,40.3,30.62,NE,45,5.4,5.4,45,0.00,,---,0.00,VWS V13.01,2013-06-02 04:26:00,
2013-06-01 21:31:00,61.9,40.9,30.62,NE,45,5.4,5.4,46,0.00,,---,0.00,VWS V13.01,2013-06-02 04:31:00,
2013-06-01 21:36:00,61.7,40.7,30.62,North,0,4.9,4.9,46,0.00,,---,0.00,VWS V13.01,2013-06-02 04:36:00,
2013-06-01 21:41:00,61.5,41.1,30.62,NE,45,3.6,3.6,47,0.00,,---,0.00,VWS V13.01,2013-06-02 04:41:00,
2013-06-01 21:46:00,61.0,40.6,30.62,North,0,3.1,3.1,47,0.00,,---,0.00,VWS V13.01,2013-06-02 04:46:00,
2013-06-01 21:51:00,60.8,41.0,30.62,NE,45,5.4,5.4,48,0.00,,---,0.00,VWS V13.01,2013-06-02 04:51:00,
2013-06-01 21:56:00,60.6,41.4,30.62,North,0,3.6,3.6,49,0.00,,---,0.00,VWS V13.01,2013-06-02 04:56:00,
2013-06-01 22:01:00,60.4,41.2,30.62,North,0,5.8,6.3,49,0.00,,---,0.00,VWS V13.01,2013-06-02 05:01:00,
2013-06-01 22:06:00,60.1,41.4,30.62,North,0,3.1,3.1,50,0.00,,---,0.00,VWS V13.01,2013-06-02 05:06:00,
2013-06-01 22:11:00,59.9,41.8,30.62,NE,45,2.2,2.2,51,0.00,,---,0.00,VWS V13.01,2013-06-02 05:11:00,
2013-06-01 22:16:00,59.5,41.4,30.62,North,0,3.1,3.1,51,0.00,,---,0.00,VWS V13.01,2013-06-02 05:16:00,
2013-06-01 22:21:00,59.4,41.8,30.62,North,0,3.6,4.0,52,0.00,,---,0.00,VWS V13.01,2013-06-02 05:21:00,
2013-06-01 22:26:00,59.0,41.4,30.62,North,0,2.2,2.7,52,0.00,,---,0.00,VWS V13.01,2013-06-02 05:26:00,
2013-06-01 22:31:00,58.8,41.7,30.62,North,0,3.1,3.1,53,0.00,,---,0.00,VWS V13.01,2013-06-02 05:31:00,
2013-06-01 22:36:00,58.8,41.7,30.62,North,0,2.7,2.7,53,0.00,,---,0.00,VWS V13.01,2013-06-02 05:36:00,
2013-06-01 22:41:00,58.5,41.4,30.62,NNE,22,2.7,2.7,53,0.00,,---,0.00,VWS V13.01,2013-06-02 05:41:00,
2013-06-01 22:46:00,58.1,41.6,30.62,NNE,22,3.6,3.6,54,0.00,,---,0.00,VWS V13.01,2013-06-02 05:46:00,
2013-06-01 22:51:00,57.6,41.1,30.62,NNE,22,0.0,0.0,54,0.00,,---,0.00,VWS V13.01,2013-06-02 05:51:00,
2013-06-01 22:56:00,57.6,41.1,30.62,NNE,22,0.0,0.0,54,0.00,,---,0.00,VWS V13.01,2013-06-02 05:56:00,
2013-06-01 23:01:00,57.0,42.0,30.62,NNE,22,0.0,0.0,57,0.00,,---,0.00,VWS V13.01,2013-06-02 06:01:00,
2013-06-01 23:06:00,56.5,41.9,30.62,NNE,22,0.0,0.0,58,0.00,,---,0.00,VWS V13.01,2013-06-02 06:06:00,
2013-06-01 23:11:00,56.3,42.2,30.62,NNE,22,0.0,0.0,59,0.00,,---,0.00,VWS V13.01,2013-06-02 06:11:00,
2013-06-01 23:16:00,55.6,41.9,30.62,NNE,22,0.0,0.0,60,0.00,,---,0.00,VWS V13.01,2013-06-02 06:16:00,
2013-06-01 23:21:00,55.6,41.9,30.62,NNE,22,0.0,0.0,60,0.00,,---,0.00,VWS V13.01,2013-06-02 06:21:00,
2013-06-01 23:26:00,54.9,42.5,30.62,NNE,22,0.0,0.0,63,0.00,,---,0.00,VWS V13.01,2013-06-02 06:26:00,
2013-06-01 23:31:00,54.5,42.2,30.62,NNE,22,0.0,0.0,63,0.00,,---,0.00,VWS V13.01,2013-06-02 06:31:00,
2013-06-01 23:36:00,53.8,42.3,30.62,NNE,22,0.0,0.0,65,0.00,,---,0.00,VWS V13.01,2013-06-02 06:36:00,
2013-06-01 23:41:00,53.2,42.2,30.62,NNE,22,0.0,0.0,66,0.00,,---,0.00,VWS V13.01,2013-06-02 06:41:00,
2013-06-01 23:46:00,53.1,42.4,30.62,NNE,22,0.0,0.0,67,0.00,,---,0.00,VWS V13.01,2013-06-02 06:46:00,
2013-06-01 23:51:00,52.9,42.6,30.62,NNE,22,2.2,2.7,68,0.00,,---,0.00,VWS V13.01,2013-06-02 06:51:00,
2013-06-01 23:56:00,52.7,42.5,30.62,NNE,22,2.7,2.7,68,0.00,,---,0.00,VWS V13.01,2013-06-02 06:56:00,